Location: Clermont
(50.2608°N, 4.3172°E)
Time: 05:35:30
(UTC+00:00)

SL-4 R/B - Pass Details

Date: 13 August 2020
Orbit: 428 x 665 km, 51.6° (Epoch: 19 September)

Event Time Altitude Azimuth Distance (km) Brightness Sun altitude
Rises 21:49:14 0° 276° (W) 2,630 6.0 -20.4°
Reaches altitude 10° 21:51:31 10° 279° (W) 1,702 5.0 -20.6°
Maximum altitude 21:55:21 71° 4° (N) 505 1.9 -20.9°
Enters shadow 21:55:58 56° 63° (ENE) 566 2.0 -21.0°
